Regional Weather Roundup
Issued by NWS Portland, ME

Home | Current Version | Previous Version | Text Only | Print | Product List | Glossary On
Versions: 1 2 3 4 5 6 7 8 9 10 11 12 13 14 15 16 17 18 19 20 21 22 23 24 25 26 27 28 29 30 31 32 33 34 35 36 37 38 39 40 41 42 43 44 45 46 47 48 49 50
000
ASUS41 KGYX 260610
RWRGYX
WEATHER ROUNDUP FOR MAINE AND NEW HAMPSHIRE
NATIONAL WEATHER SERVICE GRAY ME
200 AM EDT THU APR 26 2018

MEZ002-005-006-010-012-015-018-020-021-024-026-027-029-260700-
MAINE

CITY           SKY/WX    TMP DP  RH WIND       PRES   REMARKS
PORTLAND       LGT RAIN  48  48 100 SE3       29.67F
6HR MIN TEMP:  48; 6HR MAX TEMP:  49; 6HR PCP:  0.80;

SANFORD        LGT RAIN  46  46 100 NE5       29.66S VSB 3/4
BAR HARBOR     LGT RAIN  52  51  97 S26G33    29.75F
WISCASSET      LGT RAIN  49  49 100 VRB3      29.71F FOG
6HR MIN TEMP:  49; 6HR MAX TEMP:  52; 6HR PCP:  0.83;

ROCKLAND       LGT RAIN  47  47 100 S13       29.72F
FRYEBURG       CLOUDY    49  49 100 E3        29.66F
6HR MIN TEMP:  49; 6HR MAX TEMP:  50; 6HR PCP:  0.38;

LEWISTONAUBURN LGT RAIN  48  48 100 S3        29.68F FOG
AUGUSTA        LGT RAIN  50  49  96 SE7       29.70F FOG
6HR MIN TEMP:  50; 6HR MAX TEMP:  52; 6HR PCP:  0.80;

WATERVILLE     LGT RAIN  50  49  96 CALM      29.68F
BANGOR         LGT RAIN  53  51  93 S13       29.73F FOG
6HR MIN TEMP:  52; 6HR MAX TEMP:  54; 6HR PCP:  0.87;

GREENVILLE       N/A     47  47 100 SE14G21   29.68F
6HR MIN TEMP:  47; 6HR MAX TEMP:  48; 6HR PCP:  0.32;

MILLINOCKET    LGT RAIN  50  49  96 E6        29.77F FOG
6HR MIN TEMP:  50; 6HR MAX TEMP:  51; 6HR PCP:  0.51;

HOULTON        LGT RAIN  50  49  96 MISG      29.80F FOG
6HR MIN TEMP:  49; 6HR MAX TEMP:  51; 6HR PCP:  0.31;

PRESQUE ISLE   LGT RAIN  49  47  93 E8        29.82F
6HR MIN TEMP:  48; 6HR MAX TEMP:  50; 6HR PCP:  0.20;

FRENCHVILLE    RAIN      47  44  90 E9        29.82F VSB 3/4
6HR MIN TEMP:  46; 6HR MAX TEMP:  49; 6HR PCP:  0.41;

CARIBOU        LGT RAIN  49  46  90 SE9       29.82F
6HR MIN TEMP:  48; 6HR MAX TEMP:  50; 6HR PCP:  0.41;

$$

NHZ002-005-008-009-011-012-014-260700-
NEW HAMPSHIRE

CITY           SKY/WX    TMP DP  RH WIND       PRES   REMARKS
PORTSMOUTH     FOG       48  48  99 E5        29.63F VSB 1/4
ROCHESTER      FOG       49  49 100 N3        29.64F VSB 1/2
6HR MIN TEMP:  49; 6HR MAX TEMP:  51; 6HR PCP:  0.36;

NASHUA         CLOUDY    52  52 100 CALM      29.62F FOG
MANCHESTER     FOG       53  51  93 N6        29.61F VSB 3/4
6HR MIN TEMP:  53; 6HR MAX TEMP:  54; 6HR PCP:  0.15;

CONCORD        LGT RAIN  50  49  96 N5        29.63F FOG
6HR MIN TEMP:  50; 6HR MAX TEMP:  51; 6HR PCP:  0.22;

LACONIA        LGT RAIN  49  48  97 NE9       29.64F
PLYMOUTH       CLOUDY    49  48  95 MISG      29.64F FOG
BERLIN         LGT RAIN  47  47 100 CALM      29.64F
6HR MIN TEMP:  46; 6HR MAX TEMP:  51; 6HR PCP:  0.08;

WHITEFIELD     RAIN      49  48  97 E3        29.63F FOG
6HR MIN TEMP:  49; 6HR MAX TEMP:  56; 6HR PCP:  0.09;

JAFFREY        FOG       50  50 100 CALM      29.61F VSB 1/2
6HR MIN TEMP:  50; 6HR MAX TEMP:  52; 6HR PCP:  0.23;

KEENE          CLOUDY    52  51  97 N3        29.61F
LEBANON        CLOUDY    51  48  89 N5        29.62F
6HR MIN TEMP:  51; 6HR MAX TEMP:  54; 6HR PCP:  0.08;

MT WASHINGTON  LGT RAIN  39  39 100 SW33G41     N/A  VSB 1/16
6HR MIN TEMP:  34; 6HR MAX TEMP:  41; 6HR PCP:  0.21;

$$

VTZ005-007-008-260700-
VERMONT

CITY           SKY/WX    TMP DP  RH WIND       PRES   REMARKS
ST JOHNSBURY     N/A     50  50 100 MISG      29.61F
MONTPELIER     CLOUDY    48  48 100 S3        29.65F
BURLINGTON     CLOUDY    52  50  93 CALM      29.59F FOG
$$

MAZ007-012-024-CTZ003-RIZ002-NYZ038-NYZ072-260700-
SOUTHERN NEW ENGLAND AND NY

CITY           SKY/WX    TMP DP  RH WIND       PRES   REMARKS
BOSTON         FOG       51  51 100 SE6       29.63F VSB 1/2
WORCESTER      FOG       53  53 100 E6        29.61F VSB 1/4
NANTUCKET      FOG       49  49 100 SE14      29.66F VSB 1/4
PROVIDENCE     FOG       52  52 100 SE9       29.63F VSB 1/2
HARTFORD       CLOUDY    55  55 100 SE3       29.60S FOG
ALBANY         CLOUDY    54  52  93 NW7       29.61S
NEW YORK CITY  LGT RAIN  54  52  93 CALM      29.60F VSB 3/4
$$

ANZ081-ANZ082-ANZ150-NHZ014-MEZ023>029-260700-
COASTAL MARINE OBSERVATIONS

STATION/POSITION TIME  TEMP    WIND        PRES    WAVE
                       AIR SEA DIR/SP/G            HT/PER
                 (UTC) (F)     (DEG/KT/KT) (MB)    (FT/S)
MOUNT DESERT ROC 0600   47     120/ 33/ 37 1007.1F
MATINICUS ROCK   0600   47     160/ 21/ 23 1005.9F
ISLE OF SHOALS   0600   46     130/ 10/ 12 1003.4F
JEFFREYS LEDGE   0536      43                N/A     6/ 7
CASHES LEDGE BUO 0550   47 42              1005.6F   8/ 7
$$

.............KEY..............
   WCI - WIND CHILL
   TC  - TEMPERATURE IN CELSIUS
   VSB - VISIBILITY IN MILES
   HX  - HEAT INDEX
   FAIR- INDICATES FEW OR NO CLOUDS BELOW 12,000 FT, WITH NO
         SIGNIFICANT WEATHER AND/OR OBSTRUCTIONS TO VISIBILITY.





USA.gov is the U.S. government's official web portal to all federal, state and local government web resources and services.